Regional Weather Roundup
Issued by NWS

Home | Current Version | Previous Version | Graphics & Text | Print | Product List | Glossary Off
Versions: 1 2 3 4 5 6 7 8 9 10 11 12 13 14 15 16 17 18 19 20 21 22 23 24 25 26 27 28 29 30 31 32 33 34 35 36 37 38 39 40 41 42 43 44 45 46 47 48 49 50

000
ASUS43 KDTX 281901
RWRMI
MICHIGAN HOURLY REGIONAL WEATHER ROUNDUP
NATIONAL WEATHER SERVICE DETROIT/PONTIAC MI
200 PM EST SAT FEB 28 2015

NOTE: "FAIR" INDICATES FEW OR NO CLOUDS BELOW 12,000 FEET WITH NO
SIGNIFICANT WEATHER AND/OR OBSTRUCTION TO VISIBILITY.

MIZ047>049-052>055-059>063-066>070-074>076-081>083-282000-
SOUTHEAST LOWER MICHIGAN

CITY           SKY/WX    TMP DP  RH WIND       PRES   REMARKS
ADRIAN         SUNNY     17   3  54 SW9       30.71F WCI   6
ALMA           SUNNY     19   6  56 S10       30.66F WCI   7
ANN ARBOR      SUNNY     18   2  49 SW8       30.69F WCI   8
BAD AXE        SUNNY     20   7  55 SW8       30.66F WCI  11
CARO           SUNNY     22  -2  35 SW12      30.66F WCI  10
DETROIT CITY   SUNNY     21   4  47 S7        30.71F WCI  12
DETROIT        MOSUNNY   20   4  50 S14       30.72F WCI   7
FLINT          SUNNY     22   2  42 W8        30.67F WCI  12
GROSSE ILE     SUNNY     18   9  68 S8        30.71F WCI   7
HILLSDALE      SUNNY     18   2  48 SW9       30.64F WCI   7
HOWELL         SUNNY     20   0  41 S7        30.65F WCI  11

CITY           SKY/WX    TMP DP  RH WIND       PRES   REMARKS
JACKSON        SUNNY     19  -1  41 S9        30.66F WCI   8
LAMBERTVILLE   SUNNY     23   3  42 SW6       30.71F WCI  16
LANSING        MIX PCPN  19  -2  39 S12       30.67F WCI   7
LAPEER         FAIR      22  -1  37 SW3       30.66F
MASON          SUNNY     20   0  43 SW3       30.66F
MONROE         FAIR      19   7  58 S7        30.70F WCI  10
MT. CLEMENS    MOSUNNY   20   8  60 S15       30.69F WCI   6
PONTIAC        MOSUNNY   20   1  43 SW8       30.65F WCI  10
PORT HOPE        N/A     20   6  55 VRB7G17   30.66F WCI  11
PORT HURON     SUNNY     21   5  49 S8        30.71F WCI  12
TRI CITIES     SUNNY     21   5  50 SW10      30.67F WCI  10
TROY           SUNNY     25   1  36 S6        30.71F WCI  18
SAGINAW HB     SUNNY     21   5  49 SW12      30.68F WCI   9
$$
MIZ043>046-050>051-056>058-064>065-071>073-077>080-282000-
SOUTHWEST LOWER MICHIGAN

CITY           SKY/WX    TMP DP  RH WIND       PRES   REMARKS
BATTLE CREEK   SUNNY     18  -1  43 SW8       30.66F WCI   8
BENTON HARBOR  SUNNY     16  -2  45 VRB3      30.67F
BIG RAPIDS     SUNNY     22   6  51 SW8       30.60F WCI  12
COLDWATER      SUNNY     19   1  47 SW6       30.66F WCI  10
FREMONT        MOCLDY    19   8  60 SW7       30.64F WCI  10
HOLLAND        SUNNY     20   0  41 SW7       30.67F WCI  11
GRAND RAPIDS   MOSUNNY   18   2  49 SW6       30.66F WCI  10
IONIA          FAIR      20   4  48 S7        30.65F WCI  11
KALAMAZOO        N/A     17  -1  45 S10       30.66F WCI   5
LUDINGTON      SUNNY     21   9  60 SW16      30.64F WCI   7
MARSHALL       SUNNY     17   0  47 SW6       30.65F WCI   9
MOUNT PLEASANT SUNNY     21   7  53 SW9       30.64F WCI  11
MUSKEGON       PTSUNNY   19   9  65 S13       30.66F WCI   6
SOUTH HAVEN    SUNNY     20  -6  31 SE7       30.66F WCI  11
$$
MIZ016>042-282000-
NORTHERN LOWER MICHIGAN

CITY           SKY/WX    TMP DP  RH WIND       PRES   REMARKS
ALPENA         SUNNY     25   4  40 S8        30.59F WCI  16
BEAVER ISLAND  SUNNY     18   9  67 SW14G24   30.57F WCI   4
BELLAIRE       SUNNY     24   6  45 SW5       30.60F WCI  18
CADILLAC       SUNNY     21   5  49 SW8       30.53F WCI  12
CHARLEVOIX     SUNNY     20   9  60 SW8G17    30.62F WCI  11
FRANKFORT      MOSUNNY   20  12  68 SW14G20   30.62F WCI   7
GAYLORD        SUNNY     20   3  48 SW12      30.53F WCI   8
GRAYLING       SUNNY     23   5  46 W7        30.56F WCI  15
HARBOR SPRINGS SUNNY     21   8  58 W9G16     30.58F WCI  10
HOUGHTON LAKE  SUNNY     21   5  50 W10       30.58F WCI  10
MANISTEE       SUNNY     21   3  45 SW9G16    30.62F WCI  11
OSCODA         SUNNY     23   8  52 S10G16    30.61F WCI  13
PELLSTON       SUNNY     20   3  48 SW17      30.58F WCI   5
ROGERS CITY    SUNNY     26   5  42 SW3       30.59F
TRAVERSE CITY  MOSUNNY   24   4  42 SW12G18   30.58F WCI  13
$$
MIZ007>008-015-282000-
EASTERN UPPER MICHIGAN

CITY           SKY/WX    TMP DP  RH WIND       PRES   REMARKS
KINROSS        SUNNY     23   5  46 SW9G17    30.54F WCI  13
MACKINAC ISLAN SUNNY     18   9  68 W9G23     30.57F WCI   7
NEWBERRY       SUNNY     19   4  52 S10G18    30.51F WCI   8
S. S. MARIE    SUNNY     21   2  43 S12       30.52F WCI   9
MUNISING         N/A     24  -3  30 S13G22    30.49F WCI  12
$$
MIZ004>006-011>014-085-282000-
CENTRAL UPPER MICHIGAN

CITY           SKY/WX    TMP DP  RH WIND       PRES   REMARKS
MANISTIQUE     SUNNY     19   8  63 S16G22    30.54F WCI   4
ESCANABA       SUNNY     16   7  67 S15G22    30.55F WCI   1
MENOMINEE      SUNNY     18   3  53 SW12      30.56F WCI   5
SAWYER-GWINN   SUNNY     21  -2  35 S13       30.43F WCI   9
$$
MIZ001>003-009>011-084-282000-
WESTERN UPPER MICHIGAN

CITY           SKY/WX    TMP DP  RH WIND       PRES   REMARKS
IRON MOUNTAIN  SUNNY     23  -1  35 SW9       30.44F WCI  13
HOUGHTON       MOSUNNY   20  -3  36 SW8       30.39F WCI  10
COPPER HARBOR    N/A     21   6  52 SW9       30.43F WCI  11
IRONWOOD       MOSUNNY   19   0  42 S14       30.38F WCI   6
$$

ABBREVIATIONS USED IN REMARKS
   TC - TEMPERATURE IN CELSIUS
  WCI - WIND CHILL INDEX
   HX - HEAT INDEX
  VSB - VISIBILITY




USA.gov is the U.S. government's official web portal to all federal, state and local government web resources and services.